{"data":{"norad_id":56832,"epoch":"2026-09-20T21:13:22.763136Z","epoch_age_seconds":84614,"freshness":"FRESH","line1":"1 56832U 23079K   26263.88429124 -.00000104  00000+0  57398-5 0  9994","line2":"2 56832  43.0057  58.8808 0001188 272.5157  87.5559 15.27576298176633","mean_motion":15.27576298,"eccentricity":0.0001188,"inclination_deg":43.0057,"raan_deg":58.8808,"arg_perigee_deg":272.5157,"mean_anomaly_deg":87.5559,"bstar":5.7398e-6,"rev_number":17663,"period_min":94.266977164109,"perigee_km":482.2450709567,"apogee_km":483.87529140695,"semimajor_km":6861.1971811818,"source":"CELESTRAK","updated_at":"2026-09-21T09:00:33.515967Z"}}